This is the latest recevied weather packets stored in our database for station/object KC5DAQ-2. If no packets are shown the sender has not sent any weather packets the latest 10 day(s).
| Time | Temp. | Humidity | Pressure | Rain* | Wind** | Luminosity | Snow |
|---|---|---|---|---|---|---|---|
| 1787944439 | 38.33° C | 70% | 1007.7 hPa | 0 mm | - | 146 W/m² | - |
| 1787944378 | 38.89° C | 70% | 1007.7 hPa | 0 mm | - | 146 W/m² | - |
| 1787944316 | 38.89° C | 70% | 1007.7 hPa | 0 mm | - | 169 W/m² | - |
| 1787944258 | 38.89° C | 70% | 1007.7 hPa | 0 mm | - | 169 W/m² | - |
| 1787944196 | 38.89° C | 69% | 1007.7 hPa | 0 mm | - | 178 W/m² | - |
| 1787944137 | 38.89° C | 69% | 1007.7 hPa | 0 mm | - | 178 W/m² | - |
| 1787944076 | 38.89° C | 69% | 1007.7 hPa | 0 mm | - | 179 W/m² | - |
| 1787944016 | 38.89° C | 70% | 1007.9 hPa | 0 mm | - | 573 W/m² | - |
| 1787943957 | 38.89° C | 70% | 1007.7 hPa | 0 mm | - | 573 W/m² | - |
| 1787943898 | 38.89° C | 70% | 1007.8 hPa | 0 mm | - | 1009 W/m² | - |
| 1787943838 | 38.89° C | 69% | 1007.8 hPa | 0 mm | - | 1009 W/m² | - |
| 1787943776 | 38.89° C | 69% | 1007.9 hPa | 0 mm | - | 1037 W/m² | - |
| 1787943716 | 38.89° C | 69% | 1007.9 hPa | 0 mm | - | 1025 W/m² | - |
| 1787943657 | 38.89° C | 69% | 1007.9 hPa | 0 mm | - | 1000 W/m² | - |
| 1787943596 | 38.89° C | 67% | 1007.9 hPa | 0 mm | - | 988 W/m² | - |
| 1787943537 | 38.89° C | 67% | 1007.9 hPa | 0 mm | - | 916 W/m² | - |
| 1787943484 | 38.89° C | 67% | 1008 hPa | 0 mm | - | 990 W/m² | - |
| 1787943416 | 38.89° C | 68% | 1008 hPa | 0 mm | - | 990 W/m² | - |
| 1787943356 | 38.89° C | 68% | 1008 hPa | 0 mm | - | 990 W/m² | - |
| 1787943298 | 38.89° C | 68% | 1008.1 hPa | 0 mm | - | 990 W/m² | - |
| 1787943236 | 38.89° C | 68% | 1008.1 hPa | 0 mm | - | 990 W/m² | - |
| 1787943175 | 38.89° C | 67% | 1008.1 hPa | 0 mm | - | 990 W/m² | - |
| 1787943117 | 38.89° C | 69% | 1008 hPa | 0 mm | - | 992 W/m² | - |
| 1787943056 | 38.89° C | 69% | 1008.2 hPa | 0 mm | - | 990 W/m² | - |
| 1787942997 | 38.89° C | 69% | 1008.1 hPa | 0 mm | - | 990 W/m² | - |
* Rain latest hour (hover to see other rain measurements)
** Current wind speed in m/s (hover to see current wind gust speed)